Location: Moena
(46.3667°N, 11.6500°E)
Time: 07:20:08
(UTC+00:00)

Cosmos 1943 Rocket - Pass Details

Date: 03 March 2021
Orbit: 811 x 844 km, 71.0° (Epoch: 18 April)

Event Time Altitude Azimuth Distance (km) Brightness Sun altitude
Rises 20:44:17 0° 337° (NNW) 3,414 6.1 -37.2°
Reaches altitude 10° 20:46:54 10° 345° (NNW) 2,474 5.1 -37.6°
Enters shadow 20:48:44 20° 355° (N) 1,871 4.3 -37.9°
